Regional Weather Roundup
Issued by NWS

Home | Current Version | Previous Version | Graphics & Text | Print | Product List | Glossary On
Versions: 1 2 3 4 5 6 7 8 9 10 11 12 13 14 15 16 17 18 19 20 21 22 23 24 25 26 27 28 29 30 31 32 33 34 35 36 37 38 39 40 41 42 43 44 45 46 47 48 49 50
711
ASUS45 KPSR 220910
RWRAZ

ARIZONA HOURLY REGIONAL WEATHER ROUNDUP
NATIONAL WEATHER SERVICE PHOENIX AZ
200 AM MST MON JAN 22 2018

NOTE: FAIR INDICATES FEW OR NO CLOUDS BELOW 12,000 FEET WITH NO
SIGNIFICANT WEATHER AND/OR OBSTRUCTIONS TO VISIBILITY.

AZZ001>003-036-221000-
NORTHWEST ARIZONA

CITY           SKY/WX    TMP DP  RH WIND       PRES   REMARKS
BULLHEAD CITY  PTCLDY    45  18  33 NE5       30.30S
KINGMAN        PTCLDY   N/A N/A N/A E7        30.28F
$$

AZZ004>008-015-016-018-221000-
NORTH CENTRAL ARIZONA

CITY           SKY/WX    TMP DP  RH WIND       PRES   REMARKS
GRAND CANYON   PTCLDY     3  -1  83 CALM      30.22F
WILLIAMS       PTCLDY     7   3  85 S8        30.21S WCI  -6
PRESCOTT       PTCLDY    25  16  68 NW6       30.24F WCI  18
FLAGSTAFF      MOCLDY     4   0  83 CALM      30.20R
PAYSON         PTCLDY    25  16  68 E5        30.22S WCI  19
PAGE           CLEAR     29  10  45 CALM      30.26R
$$

AZZ009>014-017-221000-
NORTHEAST ARIZONA

CITY           SKY/WX    TMP DP  RH WIND       PRES   REMARKS
WINSLOW        MOCLDY    12   5  73 W6        30.26R WCI   3
SAINT JOHNS    MOCLDY    19  10  68 CALM      30.21R
WINDOW ROCK    MOCLDY    11   5  77 CALM      30.19R
SHOW LOW       DRIZZLE   10   9  92 E3        30.22S
$$

AZZ540-542>544-546-548-221000-
GREATER PHOENIX AREA

CITY           SKY/WX    TMP DP  RH WIND       PRES   REMARKS
PHOENIX        PTCLDY    42  26  53 E7        30.24S
BUCKEYE        PTCLDY    39  16  38 N6        30.26S WCI  35
LUKE AFB       PTCLDY    38  24  55 CALM      30.24S
DEER VALLEY    CLEAR     39  25  57 E6        30.24F WCI  35
SCOTTSDALE     CLEAR     41  25  53 CALM      30.25F
MESA-GATEWAY   CLEAR     35  22  57 SE8       30.26F WCI  29
$$

AZZ539-553-221000-
SOUTHWEST MARICOPA COUNTY AND PINAL COUNTY

CITY           SKY/WX    TMP DP  RH WIND       PRES   REMARKS
CASA GRANDE    NOT AVBL
GILA BEND      FAIR      40  13  32 S8        30.24F WCI  35
$$

AZZ503-504-507>509-221000-
SOUTHEAST ARIZONA

CITY           SKY/WX    TMP DP  RH WIND       PRES   REMARKS
TUCSON         PTCLDY    33  18  53 S6        30.27S WCI  28
DAVIS-MONTHAN  PTCLDY    30  19  63 SE9       30.24F WCI  22
NOGALES        PTCLDY    25   9  50 CALM      30.23S
SIERRA VISTA   PTCLDY    28  10  47 E3        30.23S
DOUGLAS        MOCLDY    21  11  65 N12       30.23F WCI   9
SAFFORD        CLEAR     37  17  44 NW8       30.23R WCI  31
$$

AZZ532-221000-
SOUTHWEST ARIZONA

CITY           SKY/WX    TMP DP  RH WIND       PRES   REMARKS
YUMA           MOCLDY    48  15  26 N5        30.27S
$$

CAZ041-043-047-048-061-525>527-560>570-221000-
SOUTHERN CALIFORNIA

CITY           SKY/WX    TMP DP  RH WIND       PRES   REMARKS
DOWNTOWN L.A.  PTCLDY    50  28  42 NE3       30.26F
L.A. AIRPORT   PTCLDY    51  31  46 CALM      30.26F
SAN DIEGO      MOCLDY    52  36  54 CALM      30.27F
BURBANK        MOCLDY    47  29  49 SW5       30.25F
ONTARIO        MOCLDY    47  29  49 CALM      30.26F
RIVERSIDE      MOCLDY    44  34  67 NE5       30.26F
PALM SPRINGS   MOCLDY    49  29  46 CALM      30.30S
EL CENTRO NAS  PTCLDY    42  13  30 W8        30.29S
IMPERIAL       PTCLDY    44  16  32 CALM      30.28R
BLYTHE         PTCLDY    41  15  35 N6        30.28S
NEEDLES        PTCLDY    45  18  34 CALM      30.29F
$$

NVZ020-UTZ003-221000-
SOUTHERN NEVADA-UTAH

CITY           SKY/WX    TMP DP  RH WIND       PRES   REMARKS
LAS VEGAS      MOCLDY    41  22  46 W3        30.31S
SALT LAKE CITY PTCLDY    24  16  71 SE8       30.30S WCI  15
$$

NMZ009-TXZ055-221000-
NEW MEXICO-WEST TEXAS

CITY           SKY/WX    TMP DP  RH WIND       PRES   REMARKS
ALBUQUERQUE    PTCLDY    28  10  46 N10       30.13R WCI  19
EL PASO        CLEAR     38  12  34 W8        30.15S WCI  32
$$


........................KEY........................
SKY/WX - SKY CONDITION/WEATHER
TMP    - TEMPERATURE IN FAHRENHEIT
DP     - DEW POINT IN FAHRENHEIT
RH     - RELATIVE HUMIDITY IN PERCENT
WIND   - DIRECTION AND SPEED IN MILES PER HOUR (MPH)
VRB    - VARIABLE WIND DIRECTION
PRES   - MEAN SEA LEVEL PRESSURE IN INCHES OF MERCURY
         F - FALLING PRESSURE   R - RISING PRESSURE
         S - STEADY PRESSURE
VSB    - VISIBILITY IN MILES
HX     - HEAT INDEX IN FAHRENHEIT
WCI    - WIND CHILL INDEX IN FAHRENHEIT
TC     - TEMPERATURE IN CELSIUS WHICH IS ALSO KNOWN AS
         TEMPERATURE IN CENTIGRADE
AFB    - AIR FORCE BASE
         LUKE AFB IS LUKE AIR FORCE BASE
         DAVIS-MONTHAN IS DAVIS-MONTHAN AIR FORCE BASE
NAS    - NAVAL AIR STATION
         EL CENTRO NAS IS EL CENTRO NAVAL AIR STATION
N/A    - NOT AVAILABLE





USA.gov is the U.S. government's official web portal to all federal, state and local government web resources and services.